Simultaneous Nadir Overpasses (SNOs) Predictions

Prediction of SNOs between GOES-15 and METOP-A Satellite Orbit:

Table of predicted SNOs for the next 14.0 days since TLE Epoch: 3/16/2017
Index Date Time (GOES-15) GOES-15 Lat,Lon METOP-A Lat,Lon Distance(km) Time Diff (sec)
1 03/18/2017 06:26:29 -0.02,-134.50 -0.03,-134.60 11.62 80
2 03/20/2017 18:24:40 0.02,-134.39 -0.00,-134.15 25.82 80
3 03/23/2017 06:25:41 -0.02,-134.23 0.06,-133.75 53.35 80
4 03/24/2017 18:41:52 0.01,-134.16 0.95,-138.32 473.75 80
5 03/25/2017 18:23:52 0.02,-134.10 -0.16,-133.32 88.89 80
6 03/27/2017 06:40:13 -0.02,-133.98 -0.88,-137.92 447.75 80
7 03/28/2017 06:22:13 -0.02,-133.92 0.23,-132.92 114.73 80
8 03/29/2017 18:38:23 0.02,-133.85 0.85,-137.47 413.39 80
9 03/30/2017 18:20:24 0.02,-133.78 -0.26,-132.48 148.40 80




NCC Satellite Simultaneous Nadir Overpasses (SNOs) Prediction Service
